User: anonymous   Login
Location: Haliburton Scout Reserve
(45.0900°N, 78.3200°W)
Time: 05:42:36
(UTC-04:00)
Language:

VELOX 1 - Orbit

View from above orbital plane
View from above orbital plane
View from above satellite
View from above satellite

Ground track
Ground track

The orbit data is extracted from the following two-line orbital elements,

1 40057U 14034E   22135.90611710  .00002057  00000-0  28591-3 0  9998
2 40057  98.3623 307.1657 0011871  77.0341 283.2201 14.78987950424666
Epoch (UTC): 15 May 2022 21:44:48
Eccentricity: 0.0011871
inclination: 98.3623°
perigee height: 624 km
apogee height: 641 km
right ascension of ascending node: 307.1657°
argument of perigee: 77.0341°
revolutions per day: 14.78987950
mean anomaly at epoch: 283.2201°
orbit number at epoch: 42466

The dashed part of the orbit path shows where the satellite is in the earth's shadow,  

DLR